Location: Freistadt
(48.5112°N, 14.5013°E)
Time: 16:19:59
(UTC+02:00)

CUBEBUG 2 - Pass Details

Date: 08 April 2023
Orbit: 577 x 685 km, 97.8° (Epoch: 02 June)

Event Time Altitude Azimuth Distance (km) Brightness Sun altitude
Rises 04:33:06 0° 5° (N) 3,054 ? -18.1°
Reaches altitude 10° 04:35:33 10° 356° (N) 2,124 ? -17.7°
Maximum altitude 04:39:39 32° 294° (WNW) 1,149 ? -17.2°
Enters shadow 04:40:48 28° 266° (W) 1,248 ? -17.0°
